Location: Alphen aan den Rijn
(52.1277°N, 4.6689°E)
Time: 16:46:02
(UTC+02:00)

ISS - Pass Details

Date: 02 October 2017
Orbit: 401 x 408 km, 51.6° (Epoch: 19 October)

Event Time Altitude Azimuth Distance (km) Brightness Sun altitude
Rises 19:59:21 0° 241° (WSW) 2,319 1.1 -7.5°
Reaches altitude 10° 20:01:27 10° 236° (SW) 1,463 -0.1 -7.8°
Maximum altitude 20:04:38 50° 160° (SSE) 526 -3.4 -8.3°
Enters shadow 20:07:32 12° 85° (E) 1,348 -1.8 -8.7°
